KG0HG Weather Reports


time (UTC)temp
C
wind
direction
speed
KPH
gust
KPH
rain 1hr
cm
rain 24hr
cm
rain mn
cm
humidity
%
barometer
mb
20260507202528 18 170 12.9 17.7 0.00 0.00 0.00 49 1012.8
20260507202024 18 145 3.2 12.9 0.00 0.00 0.00 49 1013.0
20260507201520 18 135 11.3 22.5 0.00 0.00 0.00 49 1013.1
20260507201016 17 177 4.8 16.1 0.00 0.00 0.00 50 1013.2
20260507200512 17 176 4.8 12.9 0.00 0.00 0.00 49 1013.1
20260507200008 18 204 12.9 17.7 0.00 0.00 0.00 49 1013.3
20260507195505 18 185 8.0 16.1 0.00 0.00 0.00 49 1013.3
20260507195003 18 177 6.4 14.5 0.00 0.00 0.00 49 1013.2
20260507194459 18 153 8.0 14.5 0.00 0.00 0.00 48 1013.4
20260507193955 18 168 6.4 14.5 0.00 0.00 0.00 49 1013.5
20260507193452 18 218 6.4 14.5 0.00 0.00 0.00 50 1013.4
20260507192949 18 141 9.7 22.5 0.00 0.00 0.00 50 1013.5
20260507192445 18 194 4.8 16.1 0.00 0.00 0.00 50 1013.6
20260507191942 17 297 6.4 16.1 0.00 0.00 0.00 50 1013.9
20260507191438 17 224 6.4 14.5 0.00 0.00 0.00 50 1013.7
20260507190935 17 125 6.4 14.5 0.00 0.00 0.00 49 1013.9
20260507190432 17 158 4.8 14.5 0.00 0.00 0.00 50 1013.8
20260507185931 17 180 11.3 16.1 0.00 0.00 0.00 50 1014.1
20260507185428 17 140 8.0 11.3 0.00 0.00 0.00 52 1013.9
20260507184925 18 194 6.4 9.7 0.00 0.00 0.00 51 1014.2
20260507184423 17 122 11.3 17.7 0.00 0.00 0.00 51 1014.4
20260507183920 17 171 3.2 12.9 0.00 0.00 0.00 52 1014.2
20260507183417 17 176 6.4 12.9 0.00 0.00 0.00 53 1014.4
20260507182914 17 197 12.9 17.7 0.00 0.00 0.00 52 1014.4
20260507182410 17 165 8.0 24.1 0.00 0.00 0.00 53 1014.5
20260507181906 16 121 3.2 20.9 0.00 0.00 0.00 52 1014.6
20260507181402 16 352 6.4 25.7 0.00 0.00 0.00 52 1014.8
20260507180859 17 154 16.1 25.7 0.00 0.00 0.00 51 1014.7
20260507180356 17 236 8.0 14.5 0.00 0.00 0.00 53 1014.7
20260507175852 17 175 14.5 24.1 0.00 0.00 0.00 53 1014.9
20260507175349 17 162 6.4 12.9 0.00 0.00 0.00 53 1014.9
20260507174847 16 214 11.3 17.7 0.00 0.00 0.00 52 1015.2
20260507174344 16 182 8.0 16.1 0.00 0.00 0.00 53 1015.1
20260507173841 17 211 4.8 11.3 0.00 0.00 0.00 53 1015.1
20260507173338 16 135 1.6 12.9 0.00 0.00 0.00 52 1015.0
20260507172834 16 233 6.4 14.5 0.00 0.00 0.00 52 1015.2
20260507172331 16 216 4.8 14.5 0.00 0.00 0.00 53 1015.2
20260507171827 16 189 8.0 14.5 0.00 0.00 0.00 52 1015.3
20260507171324 16 160 4.8 16.1 0.00 0.00 0.00 54 1015.5
20260507170821 16 159 6.4 8.0 0.00 0.00 0.00 55 1015.7
20260507170317 16 161 4.8 16.1 0.00 0.00 0.00 55 1015.6
20260507165813 16 181 4.8 16.1 0.00 0.00 0.00 54 1015.7
20260507165310 16 171 9.7 20.9 0.00 0.00 0.00 54 1015.8
20260507164806 16 197 9.7 12.9 0.00 0.00 0.00 55 1016.0
20260507164303 16 186 8.0 12.9 0.00 0.00 0.00 54 1015.9
20260507163800 16 149 12.9 16.1 0.00 0.00 0.00 53 1015.9
20260507163258 16 120 4.8 14.5 0.00 0.00 0.00 54 1016.2
20260507162753 15 160 4.8 16.1 0.00 0.00 0.00 55 1016.0
20260507162249 16 123 4.8 16.1 0.00 0.00 0.00 55 1015.9
20260507161747 15 137 1.6 12.9 0.00 0.00 0.00 55 1016.3
20260507161243 16 163 8.0 17.7 0.00 0.00 0.00 56 1016.0
20260507160739 15 309 8.0 20.9 0.00 0.00 0.00 54 1016.0
20260507160236 15 151 11.3 20.9 0.00 0.00 0.00 54 1016.2
20260507155732 15 146 6.4 14.5 0.00 0.00 0.00 54 1016.4
20260507155228 15 220 9.7 14.5 0.00 0.00 0.00 55 1016.3
20260507154725 15 211 4.8 12.9 0.00 0.00 0.00 57 1016.2
20260507154222 15 183 4.8 12.9 0.00 0.00 0.00 56 1016.2
20260507153718 15 167 8.0 12.9 0.00 0.00 0.00 56 1016.3
20260507153215 15 256 4.8 12.9 0.00 0.00 0.00 57 1016.2
20260507152712 15 129 1.6 11.3 0.00 0.00 0.00 57 1016.5
20260507152207 15 195 4.8 14.5 0.00 0.00 0.00 58 1016.7
20260507151704 15 200 6.4 12.9 0.00 0.00 0.00 58 1016.6
20260507151200 15 138 8.0 9.7 0.00 0.00 0.00 59 1016.5
20260507150657 15 144 6.4 17.7 0.00 0.00 0.00 59 1016.7
20260507150154 15 176 4.8 9.7 0.00 0.00 0.00 61 1016.4
20260507145650 14 277 1.6 14.5 0.00 0.00 0.00 61 1016.7
20260507145147 14 159 6.4 12.9 0.00 0.00 0.00 62 1016.7
20260507144643 14 161 6.4 14.5 0.00 0.00 0.00 63 1016.9
20260507144142 13 229 4.8 12.9 0.00 0.00 0.00 64 1016.8
20260507143638 13 184 4.8 8.0 0.00 0.00 0.00 65 1016.7
20260507143135 13 145 3.2 9.7 0.00 0.00 0.00 66 1016.6
20260507142630 13 149 3.2 11.3 0.00 0.00 0.00 66 1016.8
20260507142128 13 150 4.8 11.3 0.00 0.00 0.00 66 1016.9
20260507141624 12 182 8.0 12.9 0.00 0.00 0.00 66 1016.8
20260507141121 12 274 3.2 11.3 0.00 0.00 0.00 68 1017.0
20260507140617 12 139 3.2 8.0 0.00 0.00 0.00 69 1016.8
20260507140115 12 121 1.6 8.0 0.00 0.00 0.00 69 1016.9
20260507135612 12 215 6.4 9.7 0.00 0.00 0.00 70 1016.9
20260507135109 12 286 0.0 9.7 0.00 0.00 0.00 72 1016.7
20260507134605 11 124 1.6 3.2 0.00 0.00 0.00 74 1016.9
20260507134102 11 142 3.2 4.8 0.00 0.00 0.00 73 1017.0
20260507133557 11 99 1.6 9.7 0.00 0.00 0.00 74 1016.9
20260507133055 11 87 1.6 3.2 0.00 0.00 0.00 75 1016.8
20260507132552 10 117 1.6 4.8 0.00 0.00 0.00 76 1017.1
20260507132048 10 27 0.0 0.0 0.00 0.00 0.00 79 1017.1
20260507131545 10 74 0.0 1.6 0.00 0.00 0.00 79 1017.1
20260507131043 10 74 0.0 0.0 0.00 0.00 0.00 79 1017.2
20260507130539 8 73 0.0 0.0 0.00 0.00 0.00 81 1017.4
20260507130038 8 73 0.0 0.0 0.00 0.00 0.00 81 1017.5
20260507125536 8 73 0.0 0.0 0.00 0.00 0.00 82 1017.4
20260507125033 8 73 0.0 0.0 0.00 0.00 0.00 84 1017.3
20260507124529 7 73 0.0 0.0 0.00 0.00 0.00 86 1017.2
20260507124027 6 73 0.0 0.0 0.00 0.00 0.00 88 1017.4
20260507123525 6 73 0.0 0.0 0.00 0.00 0.00 89 1017.3
20260507123021 6 73 0.0 0.0 0.00 0.00 0.00 89 1017.2
20260507122517 5 73 0.0 0.0 0.00 0.00 0.00 90 1017.3
20260507122013 5 73 0.0 0.0 0.00 0.00 0.00 90 1017.2
20260507121509 5 73 0.0 0.0 0.00 0.00 0.00 90 1017.3
20260507121004 5 73 0.0 0.0 0.00 0.00 0.00 89 1017.5
20260507120501 5 73 0.0 0.0 0.00 0.00 0.00 89 1017.2
20260507115958 5 73 0.0 0.0 0.00 0.00 0.00 88 1017.1
20260507115454 5 73 0.0 0.0 0.00 0.00 0.00 88 1017.3
20260507114950 5 73 0.0 0.0 0.00 0.00 0.00 87 1017.2
20260507114446 6 73 0.0 0.0 0.00 0.00 0.00 86 1017.2
20260507113944 6 73 0.0 0.0 0.00 0.00 0.00 85 1017.3
20260507113440 6 73 0.0 0.0 0.00 0.00 0.00 88 1017.2
20260507112938 5 73 0.0 0.0 0.00 0.00 0.00 91 1017.1
20260507112435 5 73 0.0 0.0 0.00 0.00 0.00 90 1017.1
20260507111932 4 73 0.0 0.0 0.00 0.00 0.00 90 1017.1
20260507111430 4 73 0.0 0.0 0.00 0.00 0.00 89 1017.1
20260507110926 5 73 0.0 0.0 0.00 0.00 0.00 89 1016.9
20260507110422 5 73 0.0 0.0 0.00 0.00 0.00 88 1017.0
20260507105919 5 73 0.0 0.0 0.00 0.00 0.00 86 1017.1
20260507105416 6 73 0.0 0.0 0.00 0.00 0.00 84 1017.1
20260507104912 7 73 0.0 0.0 0.00 0.00 0.00 84 1017.2
20260507104409 5 73 0.0 0.0 0.00 0.00 0.00 84 1017.1
20260507103905 6 73 0.0 0.0 0.00 0.00 0.00 82 1017.1
20260507103402 6 73 0.0 0.0 0.00 0.00 0.00 85 1017.0
20260507102858 7 73 0.0 0.0 0.00 0.00 0.00 79 1017.1
20260507102354 8 73 0.0 0.0 0.00 0.00 0.00 77 1017.0
20260507101851 7 72 0.0 0.0 0.00 0.00 0.00 78 1017.1
20260507101351 8 72 0.0 0.0 0.00 0.00 0.00 79 1017.2
20260507100848 8 72 0.0 0.0 0.00 0.00 0.00 82 1017.1
20260507100346 5 71 0.0 0.0 0.00 0.00 0.00 90 1017.1
20260507095844 6 71 0.0 0.0 0.00 0.00 0.00 86 1017.1
20260507095340 5 70 0.0 0.0 0.00 0.00 0.00 90 1017.0
20260507094838 6 70 0.0 0.0 0.00 0.00 0.00 87 1017.3
20260507094334 7 70 0.0 0.0 0.00 0.00 0.00 88 1017.2
20260507093831 6 69 0.0 0.0 0.00 0.00 0.00 92 1017.2
20260507093329 6 68 0.0 0.0 0.00 0.00 0.00 95 1017.3
20260507092827 5 68 0.0 0.0 0.00 0.00 0.00 95 1017.5
20260507092323 4 68 0.0 0.0 0.00 0.00 0.00 94 1017.4
20260507091820 4 68 0.0 0.0 0.00 0.00 0.00 94 1017.4
20260507091316 5 68 0.0 0.0 0.00 0.00 0.00 94 1017.3
20260507090811 5 68 0.0 0.0 0.00 0.00 0.00 94 1017.4
20260507090308 5 68 0.0 0.0 0.00 0.00 0.00 94 1017.2
20260507085805 5 68 0.0 0.0 0.00 0.00 0.00 94 1017.4
20260507085306 5 68 0.0 0.0 0.00 0.00 0.00 94 1017.4
20260507084800 5 68 0.0 0.0 0.00 0.00 0.00 94 1017.4
20260507084255 5 68 0.0 0.0 0.00 0.00 0.00 94 1017.3
20260507083753 5 68 0.0 0.0 0.00 0.00 0.00 93 1017.4
20260507083250 5 68 0.0 0.0 0.00 0.00 0.00 93 1017.4
20260507082746 5 68 0.0 0.0 0.00 0.00 0.00 93 1017.6
20260507082242 5 68 0.0 0.0 0.00 0.00 0.00 93 1017.5
20260507081739 5 68 0.0 0.0 0.00 0.00 0.00 93 1017.5
20260507081235 5 68 0.0 0.0 0.00 0.00 0.00 92 1017.5
20260507080731 5 68 0.0 0.0 0.00 0.00 0.00 92 1017.4
20260507080228 5 68 0.0 0.0 0.00 0.00 0.00 92 1017.5
20260507075723 5 68 0.0 0.0 0.00 0.00 0.00 92 1017.1
20260507075220 5 68 0.0 0.0 0.00 0.00 0.00 92 1017.1
20260507074716 5 68 0.0 0.0 0.00 0.00 0.00 92 1017.3
20260507074214 5 68 0.0 0.0 0.00 0.00 0.00 92 1017.2
20260507073711 5 68 0.0 0.0 0.00 0.00 0.00 91 1017.4
20260507073207 5 68 0.0 0.0 0.00 0.00 0.00 91 1017.6
20260507072705 6 68 0.0 0.0 0.00 0.00 0.00 91 1017.5
20260507072202 6 68 0.0 0.0 0.00 0.00 0.00 90 1017.8
20260507071700 6 68 0.0 0.0 0.00 0.00 0.00 90 1017.7
20260507071155 6 68 0.0 0.0 0.00 0.00 0.00 90 1017.8
20260507070653 6 68 0.0 0.0 0.00 0.00 0.00 89 1017.9
20260507070149 6 68 0.0 0.0 0.00 0.00 0.00 89 1017.7
20260507065646 6 68 0.0 0.0 0.00 0.00 0.00 89 1017.7
20260507065143 6 68 0.0 0.0 0.00 0.00 0.00 89 1018.0
20260507064640 6 68 0.0 0.0 0.00 0.00 0.00 89 1017.9
20260507064139 6 68 0.0 0.0 0.00 0.00 0.00 89 1018.0
20260507063636 6 68 0.0 0.0 0.00 0.00 0.00 89 1018.0
20260507063133 6 68 0.0 0.0 0.00 0.00 0.00 90 1018.1
20260507062629 6 68 0.0 0.0 0.00 0.00 0.00 90 1018.1
20260507062128 6 68 0.0 0.0 0.00 0.00 0.00 91 1018.1
20260507061625 6 68 0.0 0.0 0.00 0.00 0.00 91 1018.2
20260507061123 6 68 0.0 0.0 0.00 0.00 0.00 92 1018.1
20260507060621 6 68 0.0 0.0 0.00 0.00 0.00 92 1018.1
20260507060117 6 68 0.0 0.0 0.00 0.00 0.00 92 1018.1
20260507055612 6 68 0.0 0.0 0.00 0.00 0.00 92 1018.2
20260507055109 6 68 0.0 0.0 0.00 0.00 0.00 92 1018.3
20260507054604 6 68 0.0 0.0 0.00 0.00 0.00 93 1018.2
20260507054102 6 68 0.0 0.0 0.00 0.00 0.00 93 1018.1
20260507053600 6 68 0.0 0.0 0.00 0.00 0.00 93 1018.0
20260507053058 5 68 0.0 0.0 0.00 0.00 0.00 93 1018.1
20260507052556 5 68 0.0 0.0 0.00 0.00 0.00 93 1018.1
20260507052052 5 68 0.0 0.0 0.00 0.00 0.00 93 1018.0
20260507051549 5 68 0.0 0.0 0.00 0.00 0.00 92 1018.1
20260507051046 5 68 0.0 0.0 0.00 0.00 0.00 92 1018.2
20260507050543 5 68 0.0 0.0 0.00 0.00 0.00 92 1018.2
20260507050039 5 68 0.0 0.0 0.00 0.00 0.00 92 1018.1
20260507045536 5 68 0.0 0.0 0.00 0.00 0.00 92 1018.3
20260507045033 5 68 0.0 0.0 0.00 0.00 0.00 91 1018.3
20260507044530 5 68 0.0 0.0 0.00 0.00 0.00 91 1018.3
20260507044027 6 68 0.0 0.0 0.00 0.00 0.00 91 1018.2
20260507043522 6 68 0.0 0.0 0.00 0.00 0.00 91 1018.2
20260507043020 6 68 0.0 0.0 0.00 0.00 0.00 91 1018.2
20260507042516 6 68 0.0 0.0 0.00 0.00 0.00 90 1018.0
20260507042011 6 68 0.0 0.0 0.00 0.00 0.00 90 1018.2
20260507041509 6 68 0.0 0.0 0.00 0.00 0.00 90 1018.2
20260507041006 6 68 0.0 0.0 0.00 0.00 0.00 90 1018.3
20260507040502 6 67 0.0 0.0 0.00 0.00 0.00 90 1018.2
20260507035957 6 67 0.0 0.0 0.00 0.00 0.00 89 1018.3
20260507035454 6 67 0.0 0.0 0.00 0.00 0.00 88 1018.4
20260507034951 6 67 0.0 0.0 0.00 0.00 0.00 88 1018.2
20260507034448 6 67 0.0 0.0 0.00 0.00 0.00 88 1018.3
20260507033946 6 67 0.0 0.0 0.00 0.00 0.00 87 1018.1
20260507033443 6 67 0.0 0.0 0.00 0.00 0.00 86 1018.3
20260507032940 6 67 0.0 0.0 0.00 0.00 0.00 85 1018.3
20260507032437 7 67 0.0 0.0 0.00 0.00 0.00 84 1018.2
20260507031933 7 66 0.0 0.0 0.00 0.00 0.00 83 1018.4
20260507031430 7 66 0.0 0.0 0.00 0.00 0.00 82 1018.2
20260507030927 7 66 0.0 0.0 0.00 0.00 0.00 81 1018.3
20260507030424 7 66 0.0 0.0 0.00 0.00 0.00 79 1018.1
20260507025921 7 66 0.0 0.0 0.00 0.00 0.00 78 1018.2
20260507025418 7 66 0.0 0.0 0.00 0.00 0.00 77 1018.3
20260507024916 8 66 0.0 0.0 0.00 0.00 0.00 77 1018.1
20260507024413 8 66 0.0 0.0 0.00 0.00 0.00 75 1018.1
20260507023909 8 66 0.0 0.0 0.00 0.00 0.00 74 1018.0
20260507023406 8 66 0.0 0.0 0.00 0.00 0.00 72 1018.0
20260507022903 8 66 0.0 0.0 0.00 0.00 0.00 71 1018.0
20260507022400 8 65 0.0 0.0 0.00 0.00 0.00 69 1018.1
20260507021856 8 65 0.0 0.0 0.00 0.00 0.00 67 1018.0
20260507021351 9 65 0.0 0.0 0.00 0.00 0.00 64 1018.0
20260507020849 10 65 0.0 0.0 0.00 0.00 0.00 60 1017.8
20260507020345 10 65 0.0 0.0 0.00 0.00 0.00 59 1017.7
20260507015842 10 65 0.0 0.0 0.00 0.00 0.00 59 1017.7
20260507015341 10 64 0.0 0.0 0.00 0.00 0.00 54 1017.9
20260507014837 11 63 0.0 0.0 0.00 0.00 0.00 54 1017.8
20260507014334 11 62 0.0 0.0 0.00 0.00 0.00 50 1017.5
20260507013830 11 61 0.0 0.0 0.00 0.00 0.00 48 1017.6
20260507013327 11 50 0.0 0.0 0.00 0.00 0.00 47 1017.4
20260507012824 11 50 0.0 0.0 0.00 0.00 0.00 46 1017.4
20260507012320 12 49 0.0 0.0 0.00 0.00 0.00 46 1017.5
20260507011812 12 49 0.0 0.0 0.00 0.00 0.00 45 1017.3
20260507011309 12 50 0.0 0.0 0.00 0.00 0.00 42 1017.5
20260507010808 13 50 0.0 0.0 0.00 0.00 0.00 41 1017.4
20260507010304 13 50 0.0 0.0 0.00 0.00 0.00 38 1017.4
20260507005802 13 57 0.0 0.0 0.00 0.00 0.00 41 1017.3
20260507005258 14 36 0.0 1.6 0.00 0.00 0.00 37 1017.4
20260507004755 14 39 0.0 1.6 0.00 0.00 0.00 38 1017.3
20260507004253 15 301 8.0 11.3 0.00 0.00 0.00 34 1017.1
20260507003749 15 37 1.6 4.8 0.00 0.00 0.00 35 1017.1
20260507003244 16 36 1.6 3.2 0.00 0.00 0.00 33 1017.2
20260507002740 15 47 1.6 3.2 0.00 0.00 0.00 34 1017.1
20260507002236 15 347 3.2 8.0 0.00 0.00 0.00 33 1017.2
20260507001733 15 10 4.8 4.8 0.00 0.00 0.00 34 1016.9
20260507001231 15 346 4.8 4.8 0.00 0.00 0.00 33 1017.2
20260507000727 16 310 6.4 8.0 0.00 0.00 0.00 33 1017.3
20260507000222 15 306 3.2 8.0 0.00 0.00 0.00 33 1017.3
20260506235720 15 30 1.6 4.8 0.00 0.00 0.00 35 1017.3
20260506235215 15 25 3.2 4.8 0.00 0.00 0.00 33 1017.3
20260506234712 15 55 0.0 3.2 0.00 0.00 0.00 35 1017.2
20260506234210 15 8 1.6 8.0 0.00 0.00 0.00 34 1017.2
20260506233707 15 25 4.8 14.5 0.00 0.00 0.00 32 1017.3
20260506233203 16 292 12.9 16.1 0.00 0.00 0.00 32 1017.1
20260506232700 16 12 3.2 9.7 0.00 0.00 0.00 32 1017.0
20260506232155 16 350 3.2 4.8 0.00 0.00 0.00 33 1017.1
20260506231652 15 39 0.0 9.7 0.00 0.00 0.00 32 1017.2
20260506231151 16 59 1.6 3.2 0.00 0.00 0.00 35 1017.1
20260506230647 16 45 4.8 4.8 0.00 0.00 0.00 34 1017.0
20260506230144 16 22 3.2 8.0 0.00 0.00 0.00 34 1017.3
20260506225640 16 104 1.6 9.7 0.00 0.00 0.00 33 1017.1
20260506225138 15 28 1.6 12.9 0.00 0.00 0.00 34 1017.0
20260506224634 16 65 0.0 3.2 0.00 0.00 0.00 36 1017.1
20260506224130 15 297 3.2 11.3 0.00 0.00 0.00 34 1017.2
20260506223627 15 293 9.7 14.5 0.00 0.00 0.00 33 1017.2
20260506223123 15 34 1.6 4.8 0.00 0.00 0.00 34 1017.4
20260506222620 16 93 1.6 3.2 0.00 0.00 0.00 35 1017.3
20260506222116 16 295 4.8 8.0 0.00 0.00 0.00 34 1017.4
20260506221614 16 46 0.0 9.7 0.00 0.00 0.00 33 1017.3
20260506221112 16 46 1.6 4.8 0.00 0.00 0.00 32 1017.1
20260506220608 15 267 4.8 12.9 0.00 0.00 0.00 33 1017.4
20260506220103 15 47 0.0 3.2 0.00 0.00 0.00 34 1017.4
20260506215600 15 347 4.8 11.3 0.00 0.00 0.00 34 1017.4
20260506215056 15 210 6.4 8.0 0.00 0.00 0.00 36 1017.3
20260506214553 15 309 6.4 11.3 0.00 0.00 0.00 34 1017.6
20260506214050 15 313 11.3 20.9 0.00 0.00 0.00 34 1017.5
20260506213548 14 1 6.4 9.7 0.00 0.00 0.00 33 1017.4
20260506213045 14 356 4.8 11.3 0.00 0.00 0.00 34 1017.4
20260506212542 15 325 8.0 14.5 0.00 0.00 0.00 34 1017.5
20260506212037 15 311 6.4 16.1 0.00 0.00 0.00 33 1017.5
20260506211533 15 359 3.2 12.9 0.00 0.00 0.00 34 1017.7
20260506211030 15 350 8.0 16.1 0.00 0.00 0.00 33 1017.7
20260506210527 15 56 1.6 4.8 0.00 0.00 0.00 34 1017.8
20260506210024 15 45 1.6 3.2 0.00 0.00 0.00 35 1018.0
20260506205520 15 10 4.8 16.1 0.00 0.00 0.00 34 1018.1
20260506205016 15 307 6.4 16.1 0.00 0.00 0.00 34 1018.1
20260506204514 15 52 1.6 4.8 0.00 0.00 0.00 34 1018.2
20260506204010 15 27 3.2 4.8 0.00 0.00 0.00 34 1018.3
20260506203509 15 23 3.2 4.8 0.00 0.00 0.00 34 1018.3
20260506203004 15 357 8.0 11.3 0.00 0.00 0.00 33 1018.5